Regional Weather Roundup
Issued by NWS Jackson, KY

Current Version | Previous Version | Text Only | Print | Product List | Glossary On
Versions: 1 2 3 4 5 6 7 8 9 10 11 12 13 14 15 16 17 18 19 20 21 22 23 24 25 26 27
000
ASUS43 KJKL 250010
RWRJKL

EAST KENTUCKY HOURLY WEATHER ROUNDUP
NATIONAL WEATHER SERVICE JACKSON KY
700 PM EST FRI FEB 24 2017

NOTE: "FAIR" INDICATES FEW OR NO CLOUDS BELOW 12,000 FEET WITH
NO SIGNIFICANT WEATHER AND/OR OBSTRUCTIONS TO VISIBILITY.

* THESE REPORTS ARE NOT UNDER NWS QUALITY CONTROL AND MAY NOT
  REPORT WEATHER SUCH AS PRECIPITATION AND FOG.

KYZ079-080-083-085-087-088-110-112-115-119-120-250100
...EASTERN KENTUCKY...

CITY           SKY/WX    TMP DP  RH WIND       PRES   REMARKS
JACKSON        CLEAR     72  48  42 VRB7G17   29.67R
6HR MIN TEMP:  71; 6HR MAX TEMP:  79;

LONDON         PTCLDY    71  48  43 SW8       29.68R
6HR MIN TEMP:  71; 6HR MAX TEMP:  76;

SOMERSET*      MOCLDY    70  50  49 S7        29.67S
MONTICELLO*    CLOUDY    72  54  53 VRB6      29.68R
6HR MIN TEMP:  72; 6HR MAX TEMP:  78;

WILLIAMSBURG*  CLEAR     70  50  49 SW7       29.69S
MIDDLESBORO*   CLEAR     72  51  48 S10G18    29.70R
6HR MIN TEMP:  72; 6HR MAX TEMP:  76;

HARLAN APT*    PTCLDY    70  46  43 SE5       29.71R
PIKE CO APT*     N/A     72  46  39 S9        29.67S
BIG SANDY APT* CLEAR     74  46  37 SW8       29.66R
6HR MIN TEMP:  73; 6HR MAX TEMP:  80;

MOREHEAD APT*  CLEAR     72  48  43 S12       29.65R
ASHLAND*       CLEAR     73  48  40 CALM      29.59R
$$

KYZ035-036-041-042-044-050-067-078-099-250100
...CENTRAL KENTUCKY...

CITY           SKY/WX    TMP DP  RH WIND       PRES   REMARKS
FLEMING/MASON* PTCLDY    69  51  52 S9        29.60F
DANVILLE*      PTCLDY    68  52  56 SW7       29.63R
LEXINGTON      PTCLDY    71  51  49 S13       29.58F
6HR MIN TEMP:  71; 6HR MAX TEMP:  79;

FRANKFORT      CLOUDY    74  49  41 SW12      29.56F
6HR MIN TEMP:  73; 6HR MAX TEMP:  80;

LOUISVILLE     TSTM      60  56  86 SW14G21   29.57R
6HR MIN TEMP:  59; 6HR MAX TEMP:  81; 6HR PCP:  0.57;

LEBANON*         N/A     72  52  49 S15G24    29.60F
GLASGOW*       PTCLDY    73  51  45 S13       29.61F
BOWLING GREEN  CLOUDY    71  53  52 W20G29    29.62R
6HR MIN TEMP:  73; 6HR MAX TEMP:  81;

$$

KYZ091>093-OHZ055-061-077-WVZ005-015-034-035-042-250100
...SOUTHERN OHIO/WEST VIRGINIA...

CITY           SKY/WX    TMP DP  RH WIND       PRES   REMARKS
COVINGTON      CLOUDY    72  52  49 S15G23    29.53F
COLUMBUS       CLOUDY    73  50  44 S7        29.56F
DAYTON         CLOUDY    70  51  51 S10G20    29.54S
WILMINGTON     MOCLDY    70  52  52 S12       29.55F
HUNTINGTON     CLEAR     74  45  35 S7        29.61R
CHARLESTON     PTCLDY    74  42  31 S7        29.62S
PINEVILLE*     CLEAR     62  45  53 MISG      29.75S
BECKLEY        CLEAR     65  48  54 SE12G21   29.75F
BLUEFIELD      CLEAR     63  47  55 SE18G29   29.79F
LOGAN CO APT*    N/A     73  43  33 S7G15     29.67S
$$

VAZ002-007-008-TNZ017-027-036-066-071-250100
...SOUTHWEST VIRGINIA/EAST TENNESSEE...

CITY           SKY/WX    TMP DP  RH WIND       PRES   REMARKS
WISE*          PTCLDY    68  45  42 S9G17     29.74F
JONESVILLE*      N/A     72  48  43 SW3       29.73R
ABINGDON*      CLEAR     69  51  51 S10G16    29.75F
BRISTOL        PTCLDY    70  50  49 SE12G22   29.73S
MORRISTOWN*    CLEAR     72  48  43 S6        29.70S
SEVIERVILLE*   CLEAR     73  46  38 SW10      29.70R
KNOXVILLE      PTCLDY    70  50  49 SW12      29.70R
LAFOLLETTE*    CLOUDY    72  54  53 SW9       29.73R
OAK RIDGE      PTCLDY    73  52  47 SW5       29.71R
CROSSVILLE     MOCLDY    69  52  54 VRB7      29.74R
NASHVILLE      MOCLDY    75  50  41 SW13G22   29.65R
$$

...KEY TO REMARKS...
VSB - VISIBILITY IN MILES
WCI - WIND CHILL INDEX
HX  - HEAT INDEX

$$




USA.gov is the U.S. government's official web portal to all federal, state and local government web resources and services.